Weather History for KDAN - April, 2013

Change the Weather History Date:

Friday, April 5, 2013

  Actual Average Record
Temperature  
Mean Temperature 52 °F 55 °F  
Max Temperature 66 °F 66 °F 89 °F (2010)
Min Temperature 37 °F 44 °F 29 °F (2015)
Degree Days  
Heating Degree Days 13 10  
Month to date heating degree days 80 55  
Since 1 July heating degree days 3535 3566  
Cooling Degree Days 0 1  
Month to date cooling degree days 0 4  
Year to date cooling degree days 2 7  
Moisture  
Dew Point 36 °F    
Average Humidity 60    
Maximum Humidity 92    
Minimum Humidity 28    
Precipitation  
Precipitation 0.29 in 0.12 in 1.16 in (1977)
Month to date precipitation 0.88 0.64  
Year to date precipitation 13.24 11.18  
Snow  
Snow 0.00 in - - ()
Month to date snowfall 0.0  
Since 1 July snowfall 1.7  
Snow Depth 0.00 in    
Sea Level Pressure  
Sea Level Pressure 29.94 in    
Wind  
Wind Speed 6 mph (NNW)    
Max Wind Speed 16 mph    
Max Gust Speed 23 mph    
Visibility 9 miles    
Events Rain    
T = Trace of Precipitation, MM = Missing Value Source: NWS Daily Summary

Daily Weather History Graph

Daily Weather History Graph

Search for Another Location

Airport or City:

Trip Planner

Search our weather history database for the weather conditions in past years. The results will help you decide how hot, cold, wet, or windy it might be!

Date:

Astronomy

Apr. 05, 2013 Rise Set
Actual Time 6:57 AM EDT 7:43 PM EDT
Civil Twilight 6:31 AM EDT 8:09 PM EDT
Nautical Twilight 6:00 AM EDT 8:40 PM EDT
Astronomical Twilight 5:28 AM EDT 9:12 PM EDT
Moon 3:55 AM EDT (4/5) 3:12 PM EDT (4/5)
Length of Visible Light 13h 38m
Length of Day
12h 45m
Waning Crescent, 24% of the Moon is Illuminated
Apr 5
Waning Crescent
Apr 10
New
Apr 18
First Quarter
Apr 25
Full
May 2
Last Quarter

Hourly Weather History & Observations

Time (EDT) Temp. Windchill Dew Point Humidity Pressure Visibility Wind Dir Wind Speed Gust Speed Precip Events Conditions
12:53 AM 37.0 °F 31.0 °F 34.0 °F 89% 29.96 in 5.0 mi North 8.1 mph - 0.07 in Rain Light Rain
1:53 AM 37.0 °F 29.8 °F 34.0 °F 89% 29.95 in 6.0 mi North 10.4 mph - 0.06 in   Overcast
2:53 AM 37.0 °F 31.6 °F 34.0 °F 89% 29.92 in 5.0 mi North 6.9 mph - 0.06 in   Overcast
3:53 AM 37.9 °F 32.1 °F 35.1 °F 89% 29.92 in 4.0 mi North 8.1 mph - 0.05 in Rain Light Rain
4:53 AM 37.9 °F 32.7 °F 35.1 °F 89% 29.93 in 10.0 mi NNW 6.9 mph - 0.05 in   Overcast
5:53 AM 39.0 °F 34.0 °F 36.0 °F 89% 29.93 in 9.0 mi North 6.9 mph - 0.04 in   Overcast
6:06 AM 39.2 °F 35.0 °F 35.6 °F 87% 29.93 in 10.0 mi NNW 5.8 mph - N/A   Overcast
6:13 AM 39.2 °F 34.2 °F 35.6 °F 87% 29.93 in 10.0 mi NNW 6.9 mph - 0.01 in   Overcast
6:53 AM 39.0 °F 34.0 °F 36.0 °F 89% 29.92 in 10.0 mi North 6.9 mph - 0.03 in   Overcast
7:53 AM 39.9 °F 37.8 °F 36.0 °F 86% 29.94 in 10.0 mi NNW 3.5 mph - N/A   Overcast
8:53 AM 42.1 °F - 37.9 °F 85% 29.96 in 10.0 mi Calm Calm - N/A   Overcast
9:53 AM 46.0 °F 43.9 °F 41.0 °F 83% 29.96 in 10.0 mi NW 4.6 mph - N/A   Overcast
10:53 AM 50.0 °F - 42.1 °F 74% 29.97 in 10.0 mi Variable 6.9 mph - N/A   Overcast
11:53 AM 55.9 °F - 42.1 °F 60% 29.96 in 10.0 mi NW 5.8 mph - N/A   Scattered Clouds
12:53 PM 57.9 °F - 41.0 °F 53% 29.93 in 10.0 mi Variable 3.5 mph - N/A   Partly Cloudy
1:53 PM 62.1 °F - 43.0 °F 50% 29.91 in 10.0 mi North 8.1 mph - N/A   Partly Cloudy
2:53 PM 63.0 °F - 37.9 °F 40% 29.89 in 10.0 mi NNW 4.6 mph 18.4 mph N/A   Clear
3:53 PM 64.9 °F - 36.0 °F 34% 29.87 in 10.0 mi NNW 9.2 mph 17.3 mph N/A   Clear
4:53 PM 64.9 °F - 30.0 °F 27% 29.88 in 10.0 mi NNW 10.4 mph 19.6 mph N/A   Clear
5:53 PM 64.9 °F - 30.0 °F 27% 29.89 in 10.0 mi NNW 12.7 mph - N/A   Clear
6:53 PM 63.0 °F - 30.9 °F 30% 29.91 in 10.0 mi NNW 10.4 mph - N/A   Clear
7:53 PM 59.0 °F - 30.9 °F 35% 29.93 in 10.0 mi Calm Calm - N/A   Clear
8:53 PM 48.0 °F - 34.0 °F 58% 29.96 in 10.0 mi SW 3.5 mph - N/A   Clear
9:53 PM 46.9 °F - 33.1 °F 59% 29.99 in 10.0 mi WSW 3.5 mph - N/A   Clear
10:53 PM 53.1 °F - 33.1 °F 47% 30.01 in 10.0 mi WNW 5.8 mph - N/A   Clear
11:53 PM 50.0 °F - 32.0 °F 50% 30.01 in 10.0 mi NW 5.8 mph - N/A   Clear